COSMOS 1275 DEB

Satellite information

Favourite Embed

Satellite Type and Status

DEBRISIN ORBIT

Key statistics

Satellite COSMOS 1275 DEB at a glance.

Uptime

16106

Days in orbit

Revolutions

≈ 13.8

Per day

Orbit

LEO

Low Earth Orbit

Inclination

83.1

Latest

Satellite identification and parameters

Extended collection of information and parameters for COSMOS 1275 DEB.

Object identification

Identified? True

Debris? True

Object name: COSMOS 1275 DEB

International designator: 1981-053BS

Object number (NORAD): 12725

Object ID (CCSDS): 12725

Country: COMMONWEALTH OF INDEPENDENT STATES (CIS)

Current information (Y/N): Y

RCS size: SMALL

Orbital parameters

Period: 104.007 minutes

Inclination: 83.1371 deg

SMA: 7326.008 km

Apoapsis: 1012.228 km

Periapsis: 883.518 km

RAAN: 225.8186 deg

Eccentricy: 0.0087844

Argument of periapsis: 265.8381 deg

Mean anomaly: 273.9235 deg

Mean motion: 13.84527796 rev/day

Mean motion (dot): 0.00001013 rev/day2

B* drag term: 0.0008645 1/REarth

Two-line elements (TLE)

Creation date: July 8, 2025, 10:36 p.m.

Reference frame: TEME

Reference center: EARTH

Epoch: July 8, 2025, 9:22 p.m. UTC

TLE line 0: 0 COSMOS 1275 DEB

TLE line 1: 1 12725U 81053BS 25189.89065942 .00001013 00000-0 86450-3 0 9993

TLE line 2: 2 12725 83.1371 225.8186 0087844 265.8381 273.9235 13.84527796194319

Live tracking on map

Real-time ground track for satellite COSMOS 1275 DEB.

In-orbit conjunctions

A list of the most updated potential collisions computed for object COSMOS 1275 DEB.

Target Orbit TCA Probability of collision Miss distance Type
COSMOS 1802 LEO 2024-06-14 14:00:57 0.04619594 10.0 (m) PAYLOAD

Associated space launch

Navigation satellite providing location information for the Tsiklon-B navigation system

COSMOS 1275 DEB was lifted into orbit during the mission ‘Kosmos-3M | Parus 27’, on board a Kosmos-3M space rocket.

The launch took place on June 4, 1981, 3:41 p.m. from 132/2.

For more information about the launch, click the button.

Launch to space Kosmos-3M | Parus 27
Kosmos-3M | Parus 27

Agency: N/A

Status: Launch Successful

Launch date: June 4, 1981, 3:41 p.m. UTC

Rocket: Kosmos-3M

Launch pad: 132/2

Location: Plesetsk Cosmodrome, Russian Federation

...

Latest news about this satellite

There are no fresh news available about this satellite. Check back as we update our databases every day.


Newsletter sign-up

Weekly statistics, charts and insights to help you stay on top of the space industry.